• In Spain
  • List of Countries
  • For 7 days
  • Water Temperature
  • Satellite Maps
  • Weather Map
  • Weather Widgets
  • user-avatar
    Login

    Hourly Weather La Rioja

    Today, 26 May, Saturday

    Time Temperature Precipitation Wind Pressure Humidity
    00:00 +15°C° 0 mm 1 mps 713 mmHg 66%
    01:00 +15°C° 0 mm 1 mps 713 mmHg 67%
    02:00 +15°C° 0 mm 1 mps 712 mmHg 68%
    03:00 +15°C° 0 mm 2 mps 712 mmHg 68%
    04:00 +14°C° 0 mm 2 mps 712 mmHg 68%
    05:00 +14°C° 0 mm 2 mps 711 mmHg 67%
    06:00 +14°C° 0 mm 2 mps 711 mmHg 66%
    07:00 +15°C° 0 mm 2 mps 711 mmHg 64%
    08:00 +15°C° 0 mm 2 mps 711 mmHg 63%
    09:00 +17°C° 0 mm 2 mps 711 mmHg 55%
    10:00 +20°C° 0 mm 2 mps 711 mmHg 48%
    11:00 +23°C° 0 mm 2 mps 711 mmHg 41%
    12:00 +24°C° 0 mm 2 mps 710 mmHg 39%
    13:00 +25°C° 0 mm 2 mps 710 mmHg 36%
    14:00 +26°C° 0 mm 2 mps 709 mmHg 34%
    15:00 +26°C° 0 mm 2 mps 710 mmHg 35%
    16:00 +25°C° 0 mm 2 mps 710 mmHg 37%
    17:00 +25°C° 0 mm 2 mps 710 mmHg 39%
    18:00 +23°C° 0 mm 2 mps 710 mmHg 45%
    19:00 +20°C° 0 mm 2 mps 711 mmHg 51%
    20:00 +19°C° 0 mm 2 mps 712 mmHg 57%
    21:00 +18°C° 0 mm 2 mps 712 mmHg 59%
    22:00 +18°C° 0 mm 2 mps 713 mmHg 61%
    23:00 +17°C° 0 mm 2 mps 713 mmHg 63%

    Tomorrow, 27 May, Sunday

    Time Temperature Precipitation Wind Pressure Humidity
    00:00 +17°C° 0 mm 2 mps 713 mmHg 65%
    01:00 +16°C° 0 mm 2 mps 713 mmHg 67%
    02:00 +16°C° 0 mm 2 mps 714 mmHg 69%
    03:00 +15°C° 0 mm 2 mps 714 mmHg 71%
    04:00 +15°C° 0 mm 1 mps 714 mmHg 73%
    05:00 +15°C° 0 mm 1 mps 714 mmHg 74%
    06:00 +15°C° 0 mm 1 mps 714 mmHg 73%
    07:00 +16°C° 0 mm 1 mps 714 mmHg 72%
    08:00 +16°C° 0 mm 1 mps 715 mmHg 71%
    09:00 +18°C° 0 mm 2 mps 715 mmHg 63%
    10:00 +20°C° 0 mm 2 mps 715 mmHg 54%
    11:00 +24°C° 0 mm 2 mps 715 mmHg 46%
    12:00 +24°C° 0 mm 2 mps 714 mmHg 44%
    13:00 +25°C° 0 mm 2 mps 713 mmHg 42%
    14:00 +26°C° 0 mm 3 mps 712 mmHg 39%
    15:00 +26°C° 0 mm 2 mps 712 mmHg 41%
    16:00 +25°C° 0 mm 2 mps 711 mmHg 43%
    17:00 +25°C° 0 mm 2 mps 711 mmHg 45%
    18:00 +23°C° 0 mm 2 mps 711 mmHg 50%
    19:00 +21°C° 0 mm 2 mps 711 mmHg 55%
    20:00 +19°C° 0 mm 2 mps 711 mmHg 60%
    21:00 +19°C° 0 mm 2 mps 711 mmHg 61%
    22:00 +19°C° 0 mm 2 mps 711 mmHg 61%
    23:00 +18°C° 0 mm 2 mps 711 mmHg 62%

    Day after tomorrow, 28 May, Monday

    Time Temperature Precipitation Wind Pressure Humidity
    00:00 +18°C° 0 mm 2 mps 710 mmHg 62%
    01:00 +19°C° 0 mm 1 mps 710 mmHg 63%
    02:00 +18°C° 0 mm 1 mps 709 mmHg 63%
    03:00 +18°C° 0 mm 1 mps 709 mmHg 64%
    04:00 +18°C° 0 mm 1 mps 709 mmHg 64%
    05:00 +17°C° 0 mm 2 mps 708 mmHg 64%
    06:00 +17°C° 0 mm 2 mps 708 mmHg 63%
    07:00 +17°C° 0 mm 2 mps 709 mmHg 62%
    08:00 +19°C° 0 mm 1 mps 709 mmHg 60%
    09:00 +21°C° 0 mm 2 mps 709 mmHg 52%
    10:00 +24°C° 0 mm 2 mps 710 mmHg 44%
    11:00 +27°C° 0 mm 2 mps 710 mmHg 36%
    12:00 +28°C° 0 mm 2 mps 709 mmHg 33%
    13:00 +29°C° 0 mm 2 mps 709 mmHg 29%
    14:00 +30°C° 0 mm 2 mps 708 mmHg 26%
    15:00 +29°C° 0 mm 2 mps 708 mmHg 29%
    16:00 +28°C° 0 mm 2 mps 708 mmHg 31%
    17:00 +27°C° 0 mm 2 mps 708 mmHg 33%
    18:00 +26°C° 0 mm 2 mps 708 mmHg 37%
    19:00 +24°C° 0 mm 2 mps 708 mmHg 40%
    20:00 +21°C° 0 mm 2 mps 708 mmHg 44%
    21:00 +22°C° 0 mm 1 mps 708 mmHg 43%
    22:00 +22°C° 0 mm 1 mps 708 mmHg 43%
    23:00 +21°C° 0 mm 1 mps 708 mmHg 42%

    29 May, Tuesday

    Time Temperature Precipitation Wind Pressure Humidity
    00:00 +21°C° 0 mm 1 mps 708 mmHg 42%
    01:00 +21°C° 0 mm 1 mps 708 mmHg 43%
    02:00 +20°C° 0 mm 1 mps 708 mmHg 43%
    03:00 +20°C° 0 mm 1 mps 708 mmHg 44%
    04:00 +19°C° 0 mm 2 mps 707 mmHg 44%
    05:00 +18°C° 0 mm 2 mps 707 mmHg 45%
    06:00 +19°C° 0 mm 2 mps 708 mmHg 46%
    07:00 +19°C° 0 mm 2 mps 708 mmHg 46%
    08:00 +20°C° 0 mm 2 mps 709 mmHg 47%
    09:00 +23°C° 0 mm 2 mps 709 mmHg 43%
    10:00 +26°C° 0 mm 2 mps 710 mmHg 39%
    11:00 +28°C° 0 mm 2 mps 710 mmHg 36%
    12:00 +29°C° 0 mm 3 mps 710 mmHg 34%
    13:00 +29°C° 0 mm 4 mps 710 mmHg 33%
    14:00 +30°C° 0 mm 5 mps 710 mmHg 31%
    15:00 +29°C° 0 mm 5 mps 710 mmHg 34%
    16:00 +28°C° 0 mm 5 mps 711 mmHg 36%
    17:00 +27°C° 0 mm 5 mps 711 mmHg 39%
    18:00 +25°C° 0 mm 5 mps 712 mmHg 44%
    19:00 +22°C° 0 mm 4 mps 713 mmHg 49%
    20:00 +21°C° 0 mm 4 mps 715 mmHg 54%
    21:00 +20°C° 0 mm 4 mps 715 mmHg 56%
    22:00 +19°C° 0 mm 4 mps 716 mmHg 59%
    23:00 +19°C° 0 mm 3 mps 717 mmHg 62%

    30 May, Wednesday

    Time Temperature Precipitation Wind Pressure Humidity
    00:00 +18°C° 0 mm 3 mps 717 mmHg 61%
    01:00 +17°C° 0 mm 3 mps 717 mmHg 59%
    02:00 +17°C° 0 mm 3 mps 717 mmHg 58%
    03:00 +16°C° 0 mm 3 mps 717 mmHg 58%
    04:00 +14°C° 0 mm 3 mps 717 mmHg 58%
    05:00 +15°C° 0 mm 2 mps 716 mmHg 57%
    06:00 +14°C° 0 mm 2 mps 717 mmHg 55%
    07:00 +14°C° 0 mm 2 mps 717 mmHg 52%
    08:00 +14°C° 0 mm 2 mps 718 mmHg 50%
    09:00 +14°C° 0 mm 3 mps 718 mmHg 46%
    10:00 +17°C° 0 mm 3 mps 718 mmHg 41%
    11:00 +18°C° 0 mm 4 mps 718 mmHg 37%
    12:00 +18°C° 0 mm 4 mps 718 mmHg 36%
    13:00 +19°C° 0 mm 4 mps 717 mmHg 36%
    14:00 +19°C° 0 mm 4 mps 716 mmHg 35%
    15:00 +19°C° 0 mm 4 mps 717 mmHg 36%
    16:00 +18°C° 0 mm 3 mps 717 mmHg 38%
    17:00 +18°C° 0 mm 3 mps 717 mmHg 39%
    18:00 +17°C° 0 mm 3 mps 718 mmHg 43%
    19:00 +16°C° 0 mm 2 mps 719 mmHg 46%
    20:00 +14°C° 0 mm 2 mps 720 mmHg 50%
    21:00 +14°C° 0 mm 2 mps 720 mmHg 50%
    22:00 +14°C° 0 mm 2 mps 720 mmHg 49%
    23:00 +13°C° 0 mm 2 mps 721 mmHg 49%

    31 May, Thursday

    Time Temperature Precipitation Wind Pressure Humidity
    00:00 +13°C° 0 mm 2 mps 721 mmHg 48%
    01:00 +12°C° 0 mm 2 mps 720 mmHg 47%
    02:00 +12°C° 0 mm 2 mps 720 mmHg 47%
    03:00 +10°C° 0 mm 2 mps 720 mmHg 48%
    04:00 +10°C° 0 mm 2 mps 720 mmHg 48%
    05:00 +10°C° 0 mm 2 mps 720 mmHg 49%
    06:00 +9°C° 0 mm 2 mps 720 mmHg 50%
    07:00 +9°C° 0 mm 2 mps 721 mmHg 51%
    08:00 +9°C° 0 mm 2 mps 721 mmHg 53%
    09:00 +12°C° 0 mm 2 mps 720 mmHg 49%
    10:00 +12°C° 0 mm 3 mps 720 mmHg 46%
    11:00 +13°C° 0 mm 3 mps 720 mmHg 42%
    12:00 +14°C° 0 mm 3 mps 719 mmHg 40%
    13:00 +15°C° 0 mm 4 mps 718 mmHg 39%
    14:00 +15°C° 0 mm 4 mps 717 mmHg 37%
    15:00 +15°C° 0 mm 4 mps 717 mmHg 38%
    16:00 +14°C° 0 mm 4 mps 717 mmHg 39%
    17:00 +14°C° 0 mm 4 mps 717 mmHg 40%
    18:00 +13°C° 0 mm 3 mps 717 mmHg 44%
    19:00 +12°C° 0 mm 3 mps 718 mmHg 48%
    20:00 +12°C° 0 mm 2 mps 718 mmHg 51%
    21:00 +10°C° 0 mm 2 mps 718 mmHg 54%
    22:00 +10°C° 0 mm 2 mps 719 mmHg 57%
    23:00 +9°C° 0 mm 2 mps 719 mmHg 60%
    Show more